{"data":{"norad_id":55744,"epoch":"2026-09-20T22:00:03.000096Z","epoch_age_seconds":67094,"freshness":"FRESH","line1":"1 55744U 23028D   26263.91670139  .00072624  00000+0  46745-2 0  9993","line2":"2 55744  70.0004 112.2476 0004255 275.5610  50.3965 15.07954824  5764","mean_motion":15.07954824,"eccentricity":0.0004255,"inclination_deg":70.0004,"raan_deg":112.2476,"arg_perigee_deg":275.561,"mean_anomaly_deg":50.3965,"bstar":0.0046745,"rev_number":576,"period_min":95.493576934902,"perigee_km":539.50563138921,"apogee_km":545.39505121666,"semimajor_km":6920.5873413029,"source":"CELESTRAK","updated_at":"2026-09-21T09:00:33.312012Z"}}